Quillayute, WA
on Wednesday, November 7, 2012

Wednesday
Previous Day Next Day
Daily Summary
 ActualAverageRecord
Temperature
Mean Temperature °F 46°F  
Max Temperature 53°F 52°F 64°F (1979)
Min Temperature 39°F 39°F 29°F (1977)
Degree Days
Heating Degree Days 19 19  
Month to date heating degree days 131  
Since 1 July heating degree days 1221  
Cooling Degree Days 0 0  
Month to date cooling degree days 0  
Year to date cooling degree days 19  
Moisture
Dew Point 40°F   
Average Humidity 86    
Maximum Humidity 93    
Minimum Humidity 61    
Precipitation
Precipitation 0.20 in 0.50 in 4.07 in (2008)
Month to date precipitation 3.40  
Year to date precipitation 74.43  
Wind
Wind Speed 3 mph   
Max Wind Speed 10 mph   
Max Gust Speed 14 mph   
Visibility 4 miles   
Events Fog , Rain   

Key: T is trace of precipitation, MM is missing value
Source: NWS Daily Summary
Time(PST)TemperatureDew PointHumidity Pressure Visibility Wind DirectionWind SpeedGust SpeedPrecipitationEvents Conditions
12:53 AM 43.0°F 39.9°F 89% 30.07 in 4.0 miles Calm Calm - N/A   Partly Cloudy
1:12 AM 42.8°F 39.2°F 87% 30.07 in 1.8 miles Variable 6.9 mph - 0.00 in Rain Light Rain
1:21 AM 44.6°F 41.0°F 87% 30.07 in 3.0 miles West 5.8 mph - 0.01 in Rain Light Rain
1:53 AM 43.0°F 39.0°F 86% 30.07 in 6.0 miles Calm Calm - 0.01 in   Scattered Clouds
2:53 AM 39.9°F 37.9°F 93% 30.09 in 4.0 miles Calm Calm - N/A   Clear
3:06 AM 39.2°F 37.4°F 93% 30.09 in 1.8 miles East 3.5 mph - N/A   Partly Cloudy
3:16 AM 39.2°F 37.4°F 93% 30.09 in 3.0 miles East 3.5 mph - N/A   Scattered Clouds
3:53 AM 41.0°F 39.2°F 93% 30.09 in 5.0 miles Calm Calm - N/A   Mostly Cloudy
4:53 AM 41.0°F 39.0°F 93% 30.11 in 4.0 miles ENE 3.5 mph - 0.01 in Rain Light Rain
5:53 AM 39.9°F 37.9°F 93% 30.11 in 5.0 miles Calm Calm - 0.00 in   Mostly Cloudy
6:53 AM 39.0°F 37.0°F 93% 30.12 in 4.0 miles Calm Calm - N/A   Partly Cloudy
7:21 AM 39.2°F 37.4°F 93% 30.11 in 1.8 miles SSE 3.5 mph - N/A   Mostly Cloudy
7:26 AM 39.2°F 37.4°F 93% 30.11 in 0.8 miles Calm Calm - N/A   Mostly Cloudy
7:34 AM 39.2°F 37.4°F 93% 30.11 in 0.2 miles ENE 3.5 mph - 0.00 in Fog , Rain Light Rain
7:43 AM 39.2°F 37.4°F 93% 30.11 in 1.0 miles Calm Calm - 0.00 in   Scattered Clouds
7:45 AM 39.2°F 37.4°F 93% 30.11 in 2.5 miles Calm Calm - 0.00 in   Scattered Clouds
7:53 AM 39.9°F 37.9°F 93% 30.12 in 4.0 miles East 3.5 mph - 0.00 in   Mostly Cloudy
8:53 AM 45.0°F 42.1°F 90% 30.13 in 5.0 miles ENE 4.6 mph - 0.00 in   Mostly Cloudy
9:53 AM 45.0°F 42.1°F 90% 30.13 in 5.0 miles SE 3.5 mph - N/A   Scattered Clouds
10:53 AM 51.1°F 45.0°F 80% 30.12 in 6.0 miles Calm Calm - N/A   Haze
11:53 AM 50.0°F 44.1°F 80% 30.12 in 5.0 miles South 4.6 mph - N/A   Haze
12:53 PM 53.1°F 42.1°F 66% 30.09 in 6.0 miles Variable 5.8 mph - N/A   Haze
1:53 PM 53.1°F 39.9°F 61% 30.08 in 6.0 miles SSW 8.1 mph - N/A   Haze
2:53 PM 48.0°F 41.0°F 77% 30.07 in 3.0 miles SSW 8.1 mph - 0.00 in Rain Light Rain
3:53 PM 46.9°F 39.0°F 74% 30.04 in 5.0 miles Variable 4.6 mph - 0.00 in   Haze
4:28 PM 44.6°F 39.2°F 81% 30.03 in 2.0 miles Calm Calm - 0.02 in Rain Light Rain
4:37 PM 44.6°F 39.2°F 81% 30.03 in 4.0 miles Calm Calm - 0.02 in Rain Light Rain
4:48 PM 44.6°F 41.0°F 87% 30.02 in 2.0 miles Calm Calm - 0.03 in Rain Light Rain
4:53 PM 45.0°F 42.1°F 90% 30.03 in 1.5 miles Calm Calm - 0.04 in Rain Rain
5:03 PM 44.6°F 42.8°F 93% 30.03 in 1.2 miles SE 4.6 mph - 0.04 in Rain Heavy Rain
5:17 PM 44.6°F 39.2°F 81% 30.02 in 2.0 miles NE 5.8 mph - 0.09 in Rain Light Rain
5:25 PM 44.6°F 39.2°F 81% 30.02 in 7.0 miles ENE 5.8 mph - 0.10 in Rain Light Rain
5:53 PM 42.1°F 39.0°F 89% 30.02 in 8.0 miles NE 3.5 mph - 0.10 in   Mostly Cloudy
6:53 PM 43.0°F 41.0°F 93% 30.00 in 7.0 miles ENE 4.6 mph - 0.00 in   Overcast
7:53 PM 44.1°F 41.0°F 89% 29.99 in 5.0 miles ENE 4.6 mph - 0.00 in Rain Light Rain
8:13 PM 44.6°F 41.0°F 87% 29.98 in 5.0 miles ENE 4.6 mph - 0.02 in Rain Light Rain
8:27 PM 44.6°F 41.0°F 87% 29.97 in 8.0 miles ENE 5.8 mph - 0.02 in Rain Light Rain
8:53 PM 44.1°F 39.9°F 85% 29.97 in 8.0 miles ENE 8.1 mph - 0.02 in   Overcast
9:53 PM 43.0°F 39.9°F 89% 29.96 in 8.0 miles Calm Calm - N/A   Overcast
10:53 PM 43.0°F 39.9°F 89% 29.94 in 4.0 miles East 3.5 mph - 0.00 in Rain Light Rain
11:53 PM 42.8°F 39.2°F 87% 29.91 in 8.0 miles East 4.6 mph - N/A   Overcast
Moon Phase
Nov. 07 Nov. 13 Nov. 20 Nov. 28 Dec. 06
Sunrise:07:13 AM (PST) Moon Rise:No Moon Rise/
Sunset:04:50 PM (PST) Moon Set:01:29 PM (PST)11/7

Copyright © 2014 The Weather Underground, Inc.